EW0472 Weather Reports


Display with metric or nautical units.
time (UTC)temp
F
wind
direction
speed
MPH
gust
MPH
rain 1hr
in
rain 24hr
in
rain mn
in
humidity
%
barometer
mb
20210731144704 74 213 2.0 5.0 0.00 0.00 0.00 84 1009.9
20210731144204 75 242 3.0 6.0 0.00 0.00 0.00 84 1009.9
20210731143704 75 267 2.0 3.0 0.00 0.00 0.00 85 1009.9
20210731143204 73 186 2.0 5.0 0.00 0.00 0.00 85 1009.8
20210731141705 72 114 2.0 2.0 0.00 0.00 0.00 88 1010.0
20210731141204 72 195 3.0 3.0 0.00 0.00 0.00 89 1010.1
20210731140704 72 273 2.0 2.0 0.00 0.00 0.00 90 1010.1
20210731140204 71 250 2.0 3.0 0.00 0.00 0.00 91 1010.1
20210731134704 73 292 2.0 2.0 0.00 0.00 0.00 88 1010.3
20210731134205 73 43 2.0 5.0 0.00 0.00 0.00 90 1010.3
20210731133704 72 144 1.0 2.0 0.00 0.00 0.00 90 1010.3
20210731133204 71 296 2.0 5.0 0.00 0.00 0.00 93 1010.4
20210731131704 68 189 0.0 0.0 0.00 0.00 0.00 99 1010.4
20210731131204 68 180 0.0 0.0 0.00 0.00 0.00 99 1010.4
20210731130705 67 184 0.0 0.0 0.00 0.00 0.00 99 1010.4
20210731130204 66 196 0.0 0.0 0.00 0.00 0.00 99 1010.4
20210731124704 63 180 0.0 0.0 0.00 0.00 0.00 99 1010.5
20210731124205 63 297 0.0 0.0 0.00 0.00 0.00 99 1010.5
20210731123704 62 112 0.0 0.0 0.00 0.00 0.00 99 1010.5
20210731123204 61 158 0.0 0.0 0.00 0.00 0.00 99 1010.4
20210731121704 59 198 0.0 0.0 0.00 0.00 0.00 99 1010.4
20210731121204 58 180 0.0 0.0 0.00 0.00 0.00 99 1010.4
20210731120704 57 186 0.0 0.0 0.00 0.00 0.00 99 1010.5
20210731120204 56 189 0.0 0.0 0.00 0.00 0.00 99 1010.5
20210731114705 55 180 0.0 0.0 0.00 0.00 0.00 99 1010.5
20210731114204 54 185 0.0 0.0 0.00 0.00 0.00 99 1010.5
20210731113704 54 185 0.0 0.0 0.00 0.00 0.00 99 1010.5
20210731113204 54 180 0.0 0.0 0.00 0.00 0.00 99 1010.7
20210731111704 53 45 0.0 0.0 0.00 0.00 0.00 99 1010.8
20210731111204 53 158 0.0 0.0 0.00 0.00 0.00 99 1010.9
20210731110704 52 155 0.0 0.0 0.00 0.00 0.00 99 1010.9
20210731110204 52 158 0.0 0.0 0.00 0.00 0.00 99 1010.9
20210731104704 52 158 0.0 0.0 0.00 0.00 0.00 99 1011.0
20210731104204 53 158 0.0 0.0 0.00 0.00 0.00 99 1011.0
20210731103704 52 158 0.0 0.0 0.00 0.00 0.00 99 1011.0
20210731103205 52 158 0.0 0.0 0.00 0.00 0.00 99 1011.2
20210731101704 53 161 0.0 0.0 0.00 0.00 0.00 99 1011.1
20210731101204 52 158 0.0 0.0 0.00 0.00 0.00 99 1011.1
20210731100704 52 158 0.0 0.0 0.00 0.00 0.00 99 1011.0
20210731100204 52 158 0.0 0.0 0.00 0.00 0.00 99 1011.0
20210731094705 51 135 0.0 0.0 0.00 0.00 0.00 99 1011.1
20210731094204 51 135 0.0 0.0 0.00 0.00 0.00 99 1011.1
20210731093705 51 135 0.0 0.0 0.00 0.00 0.00 99 1011.1
20210731093204 51 135 0.0 0.0 0.00 0.00 0.00 99 1010.9
20210731091704 51 135 0.0 0.0 0.00 0.00 0.00 99 1011.0
20210731091204 51 135 0.0 0.0 0.00 0.00 0.00 99 1010.9
20210731090704 51 135 0.0 0.0 0.00 0.00 0.00 99 1010.9
20210731090205 51 135 0.0 0.0 0.00 0.00 0.00 99 1010.9
20210731084704 52 135 0.0 0.0 0.00 0.00 0.00 99 1011.2
20210731084204 52 159 0.0 0.0 0.00 0.00 0.00 99 1011.2
20210731083704 52 158 0.0 0.0 0.00 0.00 0.00 99 1011.2
20210731083204 52 158 0.0 0.0 0.00 0.00 0.00 99 1011.3
20210731081704 53 158 0.0 0.0 0.00 0.00 0.00 99 1011.4
20210731081204 53 158 0.0 0.0 0.00 0.00 0.00 99 1011.4
20210731080704 53 158 0.0 0.0 0.00 0.00 0.00 99 1011.5
20210731080204 53 158 0.0 0.0 0.00 0.00 0.00 99 1011.5
20210731074704 54 180 0.0 0.0 0.00 0.00 0.00 99 1011.8
20210731074204 54 175 0.0 0.0 0.00 0.00 0.00 99 1011.8
20210731073704 54 180 0.0 0.0 0.00 0.00 0.00 99 1011.8
20210731073204 54 180 0.0 0.0 0.00 0.00 0.00 99 1011.8
20210731071705 55 180 0.0 0.0 0.00 0.00 0.00 99 1011.8
20210731071205 55 180 0.0 0.0 0.00 0.00 0.00 99 1011.9
20210731070705 54 180 0.0 0.0 0.00 0.00 0.00 99 1011.9
20210731070204 55 180 0.0 0.0 0.00 0.00 0.00 99 1011.9
20210731064704 54 180 0.0 2.0 0.00 0.00 0.00 99 1012.1
20210731064204 54 180 2.0 2.0 0.00 0.00 0.00 99 1012.1
20210731063704 54 180 0.0 1.0 0.00 0.00 0.00 99 1012.1
20210731063205 53 180 0.0 2.0 0.00 0.00 0.00 99 1012.1
20210731061704 53 178 2.0 2.0 0.00 0.00 0.00 99 1012.2
20210731061204 53 112 0.0 0.0 0.00 0.00 0.00 99 1012.2
20210731060704 52 112 0.0 0.0 0.00 0.00 0.00 99 1012.3
20210731060204 52 112 0.0 0.0 0.00 0.00 0.00 99 1012.3
20210731054705 52 112 0.0 0.0 0.00 0.00 0.00 99 1012.6
20210731054204 52 112 0.0 0.0 0.00 0.00 0.00 99 1012.6
20210731053704 52 112 0.0 0.0 0.00 0.00 0.00 99 1012.6
20210731053204 53 112 0.0 0.0 0.00 0.00 0.00 99 1012.7
20210731051704 53 112 0.0 0.0 0.00 0.00 0.00 99 1012.8
20210731051204 53 112 0.0 0.0 0.00 0.00 0.00 99 1012.7
20210731050704 53 112 0.0 0.0 0.00 0.00 0.00 99 1012.7
20210731050204 53 112 0.0 0.0 0.00 0.00 0.00 99 1012.7
20210731044704 52 112 0.0 0.0 0.00 0.00 0.00 99 1012.8
20210731044204 53 112 0.0 0.0 0.00 0.00 0.00 99 1012.8
20210731043704 53 112 0.0 0.0 0.00 0.00 0.00 99 1012.8
20210731043204 53 112 0.0 0.0 0.00 0.00 0.00 99 1012.7
20210731041705 53 112 0.0 0.0 0.00 0.00 0.00 99 1012.7
20210731041204 53 112 0.0 0.0 0.00 0.00 0.00 99 1012.7
20210731040704 53 112 0.0 0.0 0.00 0.00 0.00 99 1012.8
20210731040204 53 112 0.0 0.0 0.00 0.00 0.00 99 1012.8
20210731034704 54 112 0.0 0.0 0.00 0.00 0.00 99 1013.1
20210731034204 54 112 0.0 0.0 0.00 0.00 0.00 99 1013.1
20210731033704 54 112 0.0 0.0 0.00 0.00 0.00 99 1013.1
20210731033204 54 112 0.0 0.0 0.00 0.00 0.00 99 1013.3
20210731031705 55 112 0.0 0.0 0.00 0.00 0.00 99 1013.5
20210731031204 55 112 0.0 0.0 0.00 0.00 0.00 99 1013.5
20210731030704 55 112 0.0 0.0 0.00 0.00 0.00 99 1013.5
20210731030204 55 112 0.0 0.0 0.00 0.00 0.00 98 1013.5
20210731024704 56 112 0.0 0.0 0.00 0.00 0.00 96 1013.6
20210731024204 56 112 0.0 0.0 0.00 0.00 0.00 96 1013.6
20210731023704 56 112 0.0 0.0 0.00 0.00 0.00 96 1013.6
20210731023204 56 112 1.0 1.0 0.00 0.00 0.00 95 1013.6
20210731021704 57 112 0.0 0.0 0.00 0.00 0.00 90 1013.6
20210731021204 58 112 0.0 0.0 0.00 0.00 0.00 89 1013.6
20210731020704 58 112 0.0 0.0 0.00 0.00 0.00 89 1013.6
20210731020204 58 112 0.0 0.0 0.00 0.00 0.00 91 1013.6
20210731014704 59 112 0.0 0.0 0.00 0.00 0.00 87 1013.7
20210731014204 60 112 0.0 0.0 0.00 0.00 0.00 86 1013.7
20210731013704 60 112 0.0 0.0 0.00 0.00 0.00 85 1013.7
20210731013204 60 112 0.0 1.0 0.00 0.00 0.00 86 1013.7
20210731011704 62 112 0.0 0.0 0.00 0.00 0.00 81 1013.7
20210731011204 63 112 0.0 0.0 0.00 0.00 0.00 81 1013.8
20210731010704 64 112 0.0 0.0 0.00 0.00 0.00 79 1013.8
20210731010205 64 112 0.0 1.0 0.00 0.00 0.00 78 1013.8
20210731004704 65 45 0.0 2.0 0.00 0.00 0.00 74 1013.7
20210731004205 66 112 1.0 2.0 0.00 0.00 0.00 74 1013.7
20210731003704 66 72 1.0 1.0 0.00 0.00 0.00 75 1013.7
20210731003204 66 24 1.0 2.0 0.00 0.00 0.00 74 1013.8
20210731001704 67 112 0.0 0.0 0.00 0.00 0.00 73 1013.7
20210731001204 67 145 1.0 2.0 0.00 0.00 0.00 73 1013.7
20210731000704 67 66 1.0 3.0 0.00 0.00 0.00 73 1013.8
20210731000204 67 23 1.0 5.0 0.00 0.00 0.00 73 1013.8
20210730234704 67 84 2.0 3.0 0.00 0.00 0.00 73 1013.7
20210730234205 67 101 3.0 6.0 0.00 0.00 0.00 73 1013.7
20210730233705 67 32 3.0 5.0 0.00 0.00 0.00 73 1013.7
20210730233204 68 99 3.0 5.0 0.00 0.00 0.00 73 1013.7
20210730231704 68 112 2.0 3.0 0.00 0.00 0.00 72 1013.8
20210730231205 68 45 2.0 5.0 0.00 0.00 0.00 72 1013.8
20210730230705 68 43 3.0 6.0 0.00 0.00 0.00 72 1013.9
20210730230204 69 38 3.0 6.0 0.00 0.00 0.00 71 1013.9
20210730224704 70 50 3.0 5.0 0.00 0.00 0.00 70 1013.7
20210730224204 70 146 3.0 3.0 0.00 0.00 0.00 70 1013.7
20210730223704 70 68 2.0 5.0 0.00 0.00 0.00 69 1013.7
20210730223205 70 90 4.0 8.0 0.00 0.00 0.00 69 1013.8
20210730221704 69 161 3.0 3.0 0.00 0.00 0.00 72 1013.9
20210730221204 69 158 2.0 3.0 0.00 0.00 0.00 71 1013.9
20210730220704 69 121 1.0 2.0 0.00 0.00 0.00 71 1013.9
20210730220204 69 158 2.0 3.0 0.00 0.00 0.00 70 1013.9
20210730214704 70 80 2.0 6.0 0.00 0.00 0.00 71 1013.9
20210730214204 69 148 3.0 3.0 0.00 0.00 0.00 71 1013.9
20210730213704 70 87 2.0 6.0 0.00 0.00 0.00 71 1013.9
20210730213204 69 50 3.0 6.0 0.00 0.00 0.00 71 1013.9
20210730211704 70 27 4.0 6.0 0.00 0.00 0.00 69 1013.8
20210730211204 71 72 5.0 6.0 0.00 0.00 0.00 68 1013.8
20210730210704 71 99 3.0 5.0 0.00 0.00 0.00 68 1013.8
20210730210204 70 143 3.0 6.0 0.00 0.00 0.00 68 1013.8
20210730204705 72 22 3.0 6.0 0.00 0.00 0.00 67 1013.9
20210730204205 72 67 2.0 3.0 0.00 0.00 0.00 67 1013.9
20210730203705 71 197 3.0 5.0 0.00 0.00 0.00 68 1013.9
20210730203204 71 161 2.0 7.0 0.00 0.00 0.00 69 1013.8
20210730201704 71 113 3.0 6.0 0.00 0.00 0.00 70 1013.8
20210730201204 72 148 3.0 5.0 0.00 0.00 0.00 69 1013.8
20210730200704 72 141 2.0 6.0 0.00 0.00 0.00 69 1013.8
20210730200204 73 158 3.0 6.0 0.00 0.00 0.00 68 1013.8
20210730194705 74 42 3.0 6.0 0.00 0.00 0.00 63 1014.1
20210730194204 74 30 5.0 7.0 0.00 0.00 0.00 63 1014.1
20210730193704 74 25 2.0 7.0 0.00 0.00 0.00 64 1014.1
20210730193205 74 37 3.0 7.0 0.00 0.00 0.00 65 1014.3
20210730191704 72 70 3.0 7.0 0.00 0.00 0.00 67 1014.3
20210730191204 74 53 5.0 7.0 0.00 0.00 0.00 64 1014.4
20210730190705 76 5 5.0 7.0 0.00 0.00 0.00 62 1014.4
20210730190204 76 154 5.0 8.0 0.00 0.00 0.00 62 1014.4
20210730184704 74 108 5.0 7.0 0.00 0.00 0.00 66 1014.6
20210730184204 76 45 5.0 8.0 0.00 0.00 0.00 64 1014.6
20210730183704 76 158 5.0 6.0 0.00 0.00 0.00 64 1014.6
20210730183204 75 121 3.0 7.0 0.00 0.00 0.00 65 1014.9
20210730181704 74 171 5.0 6.0 0.00 0.00 0.00 66 1014.9
20210730181204 74 168 4.0 6.0 0.00 0.00 0.00 67 1015.1
20210730180704 75 137 4.0 6.0 0.00 0.00 0.00 65 1015.2
20210730180204 74 105 3.0 7.0 0.00 0.00 0.00 67 1015.2
20210730174704 77 58 2.0 6.0 0.00 0.00 0.00 56 1015.4
20210730174205 75 213 2.0 6.0 0.00 0.00 0.00 56 1015.4
20210730173704 76 28 3.0 6.0 0.00 0.00 0.00 56 1015.4
20210730173205 76 105 3.0 6.0 0.00 0.00 0.00 56 1015.5
20210730171705 76 202 2.0 5.0 0.00 0.00 0.00 56 1015.6
20210730171204 76 83 4.0 7.0 0.00 0.00 0.00 57 1015.6
20210730170704 76 54 3.0 5.0 0.00 0.00 0.00 58 1015.6
20210730170205 75 310 3.0 7.0 0.00 0.00 0.00 59 1015.6
20210730164705 75 316 3.0 6.0 0.00 0.00 0.00 57 1015.7
20210730164204 75 353 4.0 6.0 0.00 0.00 0.00 59 1015.7
20210730163705 74 12 5.0 8.0 0.00 0.00 0.00 61 1015.7
20210730163204 74 32 6.0 8.0 0.00 0.00 0.00 59 1015.7
20210730161704 72 8 5.0 8.0 0.00 0.00 0.00 62 1015.8
20210730161204 73 15 4.0 6.0 0.00 0.00 0.00 63 1015.8
20210730160704 72 60 5.0 7.0 0.00 0.00 0.00 61 1015.8
20210730160204 73 48 6.0 8.0 0.00 0.00 0.00 61 1015.8
20210730154704 73 36 3.0 7.0 0.00 0.00 0.00 63 1016.0
20210730154204 73 258 3.0 5.0 0.00 0.00 0.00 63 1016.0
20210730153704 73 17 4.0 5.0 0.00 0.00 0.00 64 1016.0
20210730153204 72 15 3.0 10.0 0.00 0.00 0.00 64 1015.8
20210730151704 71 3 5.0 8.0 0.00 0.00 0.00 66 1015.8
20210730151205 71 298 3.0 6.0 0.00 0.00 0.00 66 1015.6
20210730150704 71 26 6.0 10.0 0.00 0.00 0.00 67 1015.6
20210730150204 71 22 3.0 7.0 0.00 0.00 0.00 69 1015.6